Terminal Aerodrome Forecast
Issued by NWS Bismarck, ND

Home | Current Version | Previous Version | Graphics & Text | Print | Product List | Glossary On
Versions: 1 2 3 4 5 6 7 8 9 10 11 12 13 14 15 16 17 18 19 20 21 22 23 24 25
552
FTUS43 KBIS 091853 AAA
TAFISN
TAF AMD
KISN 091853Z 0919/1018 25012G17KT P6SM FEW300
     FM092100 28011KT P6SM FEW300 WS020/31040KT
     FM100100 27008KT P6SM SCT250 WS020/33045KT
     FM101600 26008KT P6SM SCT250=

USA.gov is the U.S. government's official web portal to all federal, state and local government web resources and services.